KLM1925 EHAM-LSZH

Flight info

Callsign KLM1925
Flight time 1h 19m
Altitude 35000
Route EDUPO Z739 MISGO DCT ASBON DCT TUSUK DCT LAMGO/N0438F270 T721 SUL/N0425F250 T721 RILAX
Aircraft B738/M-SDE2E3FGHIRWXY/LB1

Departure

Time 2026-05-05 18:39
Airport Amsterdam Airport Schiphol (EHAM)

Arrival

Time 2026-05-05 19:58
Airport Zürich Airport (LSZH)
Time Latitude Longitude Altitude Speed Heading
2026-05-05 18:01 52.30476 4.76291 -2 ft 0 kts 238°
2026-05-05 18:23 52.30480 4.76301 -2 ft 2 kts 238°
2026-05-05 18:23 52.30488 4.76323 -2 ft 3 kts 238°
2026-05-05 18:23 52.30501 4.76346 -2 ft 3 kts 189°
2026-05-05 18:24 52.30519 4.76341 -2 ft 3 kts 174°
2026-05-05 18:24 52.30533 4.76336 -2 ft 0 kts 150°
2026-05-05 18:27 52.30532 4.76337 -2 ft 1 kts 151°
2026-05-05 18:27 52.30508 4.76364 -2 ft 8 kts 144°
2026-05-05 18:28 52.30405 4.76467 -2 ft 9 kts 147°
2026-05-05 18:28 52.30348 4.76525 -2 ft 11 kts 151°
2026-05-05 18:28 52.30279 4.76488 -2 ft 12 kts 240°
2026-05-05 18:29 52.30232 4.76357 -2 ft 16 kts 238°
2026-05-05 18:29 52.30157 4.76162 -2 ft 25 kts 237°
2026-05-05 18:29 52.30059 4.75904 -2 ft 20 kts 238°
2026-05-05 18:29 52.30005 4.75764 -2 ft 17 kts 238°
2026-05-05 18:30 52.29924 4.75553 -2 ft 27 kts 238°
2026-05-05 18:30 52.29840 4.75327 -2 ft 16 kts 249°
2026-05-05 18:30 52.29861 4.75161 -2 ft 15 kts 306°
2026-05-05 18:30 52.29930 4.75032 -2 ft 15 kts 311°
2026-05-05 18:31 52.29997 4.74906 -2 ft 15 kts 311°
2026-05-05 18:31 52.30073 4.74768 0 ft 17 kts 311°
2026-05-05 18:31 52.30149 4.74626 9 ft 17 kts 311°
2026-05-05 18:31 52.30183 4.74561 9 ft 0 kts 311°
2026-05-05 18:32 52.30187 4.74555 9 ft 2 kts 311°
2026-05-05 18:32 52.30214 4.74505 9 ft 10 kts 311°
2026-05-05 18:32 52.30276 4.74390 10 ft 16 kts 310°
2026-05-05 18:32 52.30332 4.74277 -2 ft 10 kts 308°
2026-05-05 18:33 52.30364 4.74179 -2 ft 10 kts 280°
2026-05-05 18:33 52.30356 4.74087 -2 ft 3 kts 235°
2026-05-05 18:33 52.30342 4.74060 -2 ft 4 kts 229°
2026-05-05 18:33 52.30321 4.74030 -2 ft 3 kts 214°
2026-05-05 18:34 52.30312 4.74021 -2 ft 0 kts 213°
2026-05-05 18:35 52.30303 4.74012 -2 ft 3 kts 213°
2026-05-05 18:35 52.30271 4.73973 -2 ft 8 kts 217°
2026-05-05 18:35 52.30227 4.73921 -2 ft 0 kts 217°
2026-05-05 18:35 52.30225 4.73919 -2 ft 0 kts 216°
2026-05-05 18:37 52.30212 4.73903 -2 ft 5 kts 216°
2026-05-05 18:37 52.30188 4.73840 -3 ft 8 kts 262°
2026-05-05 18:37 52.30222 4.73750 -4 ft 11 kts 336°
2026-05-05 18:38 52.30251 4.73743 -4 ft 1 kts
2026-05-05 18:38 52.30259 4.73743 -4 ft 2 kts
2026-05-05 18:38 52.30281 4.73745 -5 ft 11 kts
2026-05-05 18:38 52.30624 4.73778 -4 ft 88 kts
2026-05-05 18:39 52.31468 4.73847 7 ft 151 kts
2026-05-05 18:39 52.32569 4.73902 692 ft 159 kts
2026-05-05 18:39 52.33608 4.74026 1890 ft 138 kts
2026-05-05 18:39 52.34528 4.74412 2634 ft 145 kts 28°
2026-05-05 18:40 52.35547 4.75218 2965 ft 178 kts 26°
2026-05-05 18:40 52.36753 4.76112 3243 ft 202 kts 25°
2026-05-05 18:40 52.38040 4.77266 3629 ft 216 kts 38°
2026-05-05 18:40 52.39079 4.78886 4143 ft 223 kts 45°
2026-05-05 18:41 52.40176 4.80771 4769 ft 229 kts 45°
2026-05-05 18:41 52.41290 4.82688 5434 ft 234 kts 45°
2026-05-05 18:41 52.42171 4.84976 6015 ft 243 kts 70°
2026-05-05 18:41 52.42473 4.87778 6441 ft 265 kts 86°
2026-05-05 18:42 52.42480 4.90890 7071 ft 276 kts 89°
2026-05-05 18:42 52.42455 4.94057 7858 ft 280 kts 90°
2026-05-05 18:42 52.42269 4.97252 8660 ft 286 kts 107°
2026-05-05 18:42 52.41283 5.00080 9475 ft 290 kts 133°
2026-05-05 18:43 52.39689 5.02194 10276 ft 294 kts 145°
2026-05-05 18:43 52.37965 5.04131 10528 ft 318 kts 146°
2026-05-05 18:43 52.36080 5.06248 10735 ft 341 kts 145°
2026-05-05 18:43 52.34070 5.08539 10915 ft 363 kts 144°
2026-05-05 18:44 52.32148 5.11253 11334 ft 374 kts 134°
2026-05-05 18:44 52.30397 5.14484 12041 ft 378 kts 130°
2026-05-05 18:44 52.28704 5.17769 12781 ft 381 kts 130°
2026-05-05 18:44 52.26951 5.21072 13507 ft 386 kts 131°
2026-05-05 18:45 52.25751 5.23279 13971 ft 388 kts 131°
2026-05-05 18:45 52.23950 5.26608 14700 ft 391 kts 129°
2026-05-05 18:45 52.22313 5.30111 15454 ft 393 kts 126°
2026-05-05 18:45 52.20743 5.33785 16153 ft 396 kts 124°
2026-05-05 18:46 52.19290 5.37260 16818 ft 399 kts 124°
2026-05-05 18:46 52.17787 5.40831 17487 ft 402 kts 124°
2026-05-05 18:46 52.16173 5.44615 18180 ft 405 kts 125°
2026-05-05 18:46 52.14530 5.48416 18803 ft 407 kts 126°
2026-05-05 18:47 52.12879 5.52204 19389 ft 411 kts 126°
2026-05-05 18:47 52.11197 5.56049 19935 ft 414 kts 127°
2026-05-05 18:47 52.09516 5.59884 20501 ft 417 kts 127°
2026-05-05 18:47 52.07944 5.63466 21004 ft 421 kts 127°
2026-05-05 18:48 52.06171 5.67494 21548 ft 424 kts 128°
2026-05-05 18:48 52.04331 5.71235 22048 ft 426 kts 133°
2026-05-05 18:48 52.02221 5.74626 22541 ft 428 kts 141°
2026-05-05 18:48 51.99899 5.77775 23101 ft 429 kts 142°
2026-05-05 18:49 51.97584 5.80839 23591 ft 432 kts 143°
2026-05-05 18:49 51.95252 5.83909 24000 ft 434 kts 143°
2026-05-05 18:49 51.92896 5.87017 24438 ft 436 kts 142°
2026-05-05 18:49 51.90646 5.89998 24851 ft 437 kts 142°
2026-05-05 18:50 51.88293 5.93125 25260 ft 439 kts 142°
2026-05-05 18:50 51.85931 5.96273 25643 ft 441 kts 142°
2026-05-05 18:50 51.83554 5.99443 26036 ft 443 kts 142°
2026-05-05 18:50 51.81166 6.02624 26396 ft 445 kts 142°
2026-05-05 18:51 51.78820 6.05749 26762 ft 446 kts 142°
2026-05-05 18:51 51.76595 6.08707 27093 ft 448 kts 142°
2026-05-05 18:51 51.74184 6.11910 27439 ft 450 kts 142°
2026-05-05 18:51 51.71762 6.15121 27767 ft 452 kts 142°
2026-05-05 18:52 51.69329 6.18342 28119 ft 453 kts 142°
2026-05-05 18:52 51.66869 6.21595 28620 ft 451 kts 142°
2026-05-05 18:52 51.64449 6.24791 29180 ft 448 kts 142°
2026-05-05 18:52 51.62051 6.27952 29718 ft 445 kts 142°
2026-05-05 18:53 51.59654 6.31107 30154 ft 444 kts 142°
2026-05-05 18:53 51.57273 6.34237 30577 ft 442 kts 142°
2026-05-05 18:53 51.54899 6.37353 31065 ft 438 kts 142°
2026-05-05 18:53 51.52546 6.40437 31548 ft 435 kts 142°
2026-05-05 18:54 51.50215 6.43488 32014 ft 432 kts 142°
2026-05-05 18:54 51.47891 6.46525 32431 ft 430 kts 142°
2026-05-05 18:54 51.45572 6.49552 32849 ft 428 kts 143°
2026-05-05 18:54 51.43238 6.52595 33298 ft 425 kts 143°
2026-05-05 18:55 51.40959 6.55562 33747 ft 422 kts 143°
2026-05-05 18:55 51.38675 6.58531 34058 ft 421 kts 143°
2026-05-05 18:55 51.36401 6.61482 34230 ft 424 kts 143°
2026-05-05 18:55 51.34101 6.64463 34385 ft 427 kts 143°
2026-05-05 18:56 51.31786 6.67459 34566 ft 429 kts 143°
2026-05-05 18:56 51.29465 6.70460 34799 ft 429 kts 143°
2026-05-05 18:56 51.24837 6.76432 34831 ft 433 kts 143°
2026-05-05 18:57 51.20176 6.82435 34820 ft 428 kts 143°
2026-05-05 18:57 51.17835 6.85442 34830 ft 427 kts 143°
2026-05-05 18:58 51.13364 6.91174 34833 ft 425 kts 143°
2026-05-05 18:58 51.08875 6.96914 34841 ft 424 kts 143°
2026-05-05 18:59 51.04256 7.02804 34827 ft 424 kts 143°
2026-05-05 18:59 50.99649 7.08664 34833 ft 424 kts 143°
2026-05-05 19:00 50.95037 7.14515 34838 ft 426 kts 143°
2026-05-05 19:00 50.90417 7.20361 34829 ft 427 kts 143°
2026-05-05 19:01 50.85766 7.26231 34827 ft 429 kts 142°
2026-05-05 19:01 50.81099 7.32105 34832 ft 429 kts 143°
2026-05-05 19:02 50.76055 7.36835 34838 ft 428 kts 154°
2026-05-05 19:02 50.70655 7.40984 34813 ft 429 kts 154°
2026-05-05 19:03 50.65335 7.45090 34819 ft 429 kts 154°
2026-05-05 19:03 50.59979 7.49257 34805 ft 429 kts 154°
2026-05-05 19:04 50.54874 7.53237 34813 ft 429 kts 154°
2026-05-05 19:04 50.49478 7.57436 34812 ft 429 kts 154°
2026-05-05 19:05 50.44197 7.61536 34813 ft 430 kts 154°
2026-05-05 19:05 50.38856 7.65671 34812 ft 430 kts 154°
2026-05-05 19:06 50.33490 7.69815 34819 ft 430 kts 154°
2026-05-05 19:06 50.28087 7.73976 34817 ft 430 kts 154°
2026-05-05 19:07 50.23605 7.77420 34816 ft 430 kts 154°
2026-05-05 19:07 50.17392 7.82183 34817 ft 431 kts 154°
2026-05-05 19:08 50.11963 7.86333 34827 ft 431 kts 154°
2026-05-05 19:08 50.06581 7.90427 34815 ft 432 kts 155°
2026-05-05 19:09 50.01791 7.92789 34849 ft 432 kts 166°
2026-05-05 19:09 49.95972 7.94842 34822 ft 433 kts 167°
2026-05-05 19:10 49.90085 7.96931 34832 ft 433 kts 166°
2026-05-05 19:10 49.84253 7.99040 34822 ft 434 kts 166°
2026-05-05 19:11 49.78362 8.01186 34818 ft 435 kts 166°
2026-05-05 19:11 49.72656 8.03265 34821 ft 435 kts 166°
2026-05-05 19:12 49.66769 8.05404 34821 ft 435 kts 166°
2026-05-05 19:12 49.60872 8.07540 34823 ft 436 kts 166°
2026-05-05 19:13 49.54974 8.09671 34826 ft 436 kts 167°
2026-05-05 19:13 49.49045 8.11807 34436 ft 441 kts 166°
2026-05-05 19:14 49.46123 8.12858 33987 ft 439 kts 166°
2026-05-05 19:14 49.43167 8.13920 33460 ft 435 kts 166°
2026-05-05 19:14 49.40226 8.14975 32922 ft 435 kts 166°
2026-05-05 19:14 49.37260 8.16039 32400 ft 438 kts 166°
2026-05-05 19:15 49.34287 8.17104 31872 ft 440 kts 166°
2026-05-05 19:15 49.31255 8.18188 31337 ft 442 kts 166°
2026-05-05 19:15 49.28301 8.19243 30819 ft 444 kts 166°
2026-05-05 19:15 49.25245 8.20333 30301 ft 445 kts 166°
2026-05-05 19:16 49.22271 8.21392 30023 ft 442 kts 166°
2026-05-05 19:16 49.19226 8.22475 29704 ft 447 kts 166°
2026-05-05 19:16 49.16225 8.23541 29370 ft 453 kts 167°
2026-05-05 19:16 49.13118 8.24644 29026 ft 453 kts 167°
2026-05-05 19:17 49.10087 8.25718 28690 ft 452 kts 167°
2026-05-05 19:17 49.06988 8.26814 28361 ft 452 kts 167°
2026-05-05 19:17 49.03918 8.27900 28025 ft 452 kts 167°
2026-05-05 19:17 49.00858 8.28980 27711 ft 452 kts 167°
2026-05-05 19:18 48.97793 8.30060 27393 ft 453 kts 167°
2026-05-05 19:18 48.94711 8.31145 27077 ft 454 kts 167°
2026-05-05 19:18 48.91628 8.32229 26770 ft 455 kts 167°
2026-05-05 19:18 48.88545 8.33312 26465 ft 457 kts 167°
2026-05-05 19:19 48.85443 8.34400 26155 ft 458 kts 167°
2026-05-05 19:19 48.82419 8.35460 25872 ft 459 kts 167°
2026-05-05 19:19 48.79302 8.36550 25567 ft 460 kts 167°
2026-05-05 19:19 48.76150 8.37652 25267 ft 460 kts 167°
2026-05-05 19:20 48.73026 8.38742 24976 ft 459 kts 167°
2026-05-05 19:20 48.69927 8.39822 24686 ft 457 kts 167°
2026-05-05 19:20 48.66831 8.40900 24400 ft 454 kts 167°
2026-05-05 19:20 48.63761 8.41968 24113 ft 451 kts 167°
2026-05-05 19:21 48.61012 8.42922 23856 ft 448 kts 167°
2026-05-05 19:21 48.57980 8.43974 23563 ft 446 kts 167°
2026-05-05 19:21 48.54967 8.45018 23281 ft 443 kts 167°
2026-05-05 19:21 48.51972 8.46054 22954 ft 441 kts 167°
2026-05-05 19:22 48.49018 8.47076 22628 ft 439 kts 168°
2026-05-05 19:22 48.45984 8.48124 22303 ft 437 kts 168°
2026-05-05 19:22 48.43022 8.49145 21980 ft 436 kts 168°
2026-05-05 19:22 48.40089 8.50155 21665 ft 435 kts 168°
2026-05-05 19:23 48.37123 8.51175 21351 ft 434 kts 168°
2026-05-05 19:23 48.34188 8.52183 21042 ft 432 kts 168°
2026-05-05 19:23 48.31262 8.53188 20743 ft 431 kts 168°
2026-05-05 19:23 48.28346 8.54187 20435 ft 430 kts 168°
2026-05-05 19:24 48.25435 8.55185 20137 ft 429 kts 168°
2026-05-05 19:24 48.22531 8.56178 19903 ft 427 kts 168°
2026-05-05 19:24 48.19650 8.57126 19869 ft 425 kts 172°
2026-05-05 19:24 48.16716 8.57525 19869 ft 422 kts 180°
2026-05-05 19:25 48.13798 8.57283 19862 ft 421 kts 189°
2026-05-05 19:25 48.10933 8.56443 19877 ft 420 kts 193°
2026-05-05 19:25 48.08157 8.55556 19866 ft 420 kts 193°
2026-05-05 19:25 48.05256 8.54650 19866 ft 419 kts 192°
2026-05-05 19:26 48.02431 8.53798 19874 ft 419 kts 192°
2026-05-05 19:26 47.99573 8.52953 19873 ft 418 kts 192°
2026-05-05 19:26 47.96688 8.52451 19863 ft 420 kts 179°
2026-05-05 19:26 47.93837 8.53216 19884 ft 422 kts 164°
2026-05-05 19:27 47.91258 8.55014 19865 ft 408 kts 149°
2026-05-05 19:27 47.89011 8.57604 19873 ft 390 kts 143°
2026-05-05 19:28 47.87262 8.59770 19861 ft 375 kts 143°
2026-05-05 19:28 47.85303 8.62222 19857 ft 360 kts 143°
2026-05-05 19:28 47.83402 8.64588 19866 ft 343 kts 143°
2026-05-05 19:28 47.81630 8.66771 19861 ft 328 kts 144°
2026-05-05 19:29 47.79903 8.68881 19864 ft 314 kts 144°
2026-05-05 19:29 47.78208 8.70941 19866 ft 301 kts 144°
2026-05-05 19:29 47.76626 8.72855 19718 ft 294 kts 144°
2026-05-05 19:29 47.75073 8.74729 19468 ft 291 kts 145°
2026-05-05 19:30 47.73480 8.76649 19222 ft 288 kts 145°
2026-05-05 19:30 47.71962 8.78478 18984 ft 285 kts 145°
2026-05-05 19:30 47.70557 8.80170 18755 ft 283 kts 145°
2026-05-05 19:30 47.69023 8.82015 18523 ft 281 kts 145°
2026-05-05 19:31 47.67522 8.83823 18290 ft 279 kts 145°
2026-05-05 19:31 47.66023 8.85624 18037 ft 277 kts 145°
2026-05-05 19:31 47.64530 8.87417 17756 ft 276 kts 145°
2026-05-05 19:31 47.63055 8.89187 17489 ft 274 kts 145°
2026-05-05 19:32 47.61726 8.91200 17192 ft 279 kts 125°
2026-05-05 19:32 47.60828 8.93750 16967 ft 278 kts 120°
2026-05-05 19:32 47.59952 8.96347 16693 ft 278 kts 121°
2026-05-05 19:32 47.59073 8.98908 16429 ft 277 kts 121°
2026-05-05 19:33 47.58489 9.00588 16261 ft 277 kts 121°
2026-05-05 19:33 47.57801 9.02561 16059 ft 276 kts 121°
2026-05-05 19:33 47.56839 9.04957 15774 ft 271 kts 136°
2026-05-05 19:33 47.55358 9.06552 15535 ft 259 kts 162°
2026-05-05 19:34 47.53614 9.07049 15278 ft 250 kts 186°
2026-05-05 19:34 47.51953 9.06502 15046 ft 243 kts 207°
2026-05-05 19:34 47.50592 9.05077 14792 ft 239 kts 229°
2026-05-05 19:35 47.49413 9.00717 14301 ft 239 kts 274°
2026-05-05 19:35 47.50052 8.98475 14068 ft 246 kts 309°
2026-05-05 19:35 47.51554 8.97222 13930 ft 260 kts 347°
2026-05-05 19:35 47.53427 8.97552 13930 ft 281 kts 22°
2026-05-05 19:36 47.55097 8.99017 13909 ft 279 kts 28°
2026-05-05 19:36 47.56255 8.99833 13866 ft 273 kts 11°
2026-05-05 19:36 47.58075 8.99837 13903 ft 256 kts 339°
2026-05-05 19:36 47.59776 8.99019 13806 ft 262 kts 340°
2026-05-05 19:37 47.61595 8.98685 13540 ft 273 kts
2026-05-05 19:37 47.63448 8.99473 13254 ft 279 kts 28°
2026-05-05 19:37 47.64852 9.01439 12983 ft 280 kts 59°
2026-05-05 19:37 47.65424 9.04147 12721 ft 275 kts 89°
2026-05-05 19:38 47.65290 9.06945 12488 ft 269 kts 100°
2026-05-05 19:38 47.65034 9.09680 12225 ft 268 kts 101°
2026-05-05 19:38 47.64780 9.12419 11966 ft 267 kts 101°
2026-05-05 19:38 47.64537 9.15141 11713 ft 266 kts 100°
2026-05-05 19:39 47.64301 9.17843 11454 ft 264 kts 100°
2026-05-05 19:39 47.64039 9.20534 11198 ft 261 kts 108°
2026-05-05 19:39 47.63224 9.22859 10964 ft 249 kts 137°
2026-05-05 19:39 47.61867 9.24340 10928 ft 242 kts 161°
2026-05-05 19:40 47.60251 9.24889 10891 ft 236 kts 184°
2026-05-05 19:40 47.58675 9.24437 10880 ft 228 kts 206°
2026-05-05 19:40 47.57391 9.23126 10881 ft 225 kts 228°
2026-05-05 19:40 47.56536 9.21192 10893 ft 227 kts 246°
2026-05-05 19:41 47.56162 9.18921 10881 ft 231 kts 268°
2026-05-05 19:41 47.56306 9.16535 10894 ft 233 kts 274°
2026-05-05 19:41 47.56506 9.14144 10887 ft 235 kts 274°
2026-05-05 19:41 47.56711 9.11740 10886 ft 235 kts 274°
2026-05-05 19:42 47.56917 9.09311 10624 ft 242 kts 274°
2026-05-05 19:42 47.57126 9.06845 10368 ft 241 kts 274°
2026-05-05 19:42 47.57335 9.04381 10105 ft 240 kts 274°
2026-05-05 19:42 47.57771 9.01992 9807 ft 246 kts 296°
2026-05-05 19:43 47.58937 9.00128 9534 ft 252 kts 323°
2026-05-05 19:43 47.60599 8.99237 9245 ft 260 kts 352°
2026-05-05 19:43 47.62378 8.99646 9029 ft 263 kts 23°
2026-05-05 19:43 47.63768 9.01313 8985 ft 257 kts 56°
2026-05-05 19:44 47.64406 9.03724 8988 ft 250 kts 85°
2026-05-05 19:44 47.64348 9.06249 8998 ft 246 kts 101°
2026-05-05 19:44 47.64118 9.08793 8995 ft 251 kts 101°
2026-05-05 19:44 47.63884 9.11374 8993 ft 252 kts 101°
2026-05-05 19:45 47.63659 9.13933 8967 ft 250 kts 101°
2026-05-05 19:45 47.63186 9.16323 8968 ft 240 kts 126°
2026-05-05 19:45 47.62042 9.18041 8986 ft 230 kts 154°
2026-05-05 19:45 47.60553 9.18811 8962 ft 228 kts 178°
2026-05-05 19:46 47.59007 9.18556 8903 ft 223 kts 203°
2026-05-05 19:46 47.57730 9.17337 8885 ft 221 kts 231°
2026-05-05 19:46 47.57186 9.15184 8907 ft 235 kts 266°
2026-05-05 19:46 47.57304 9.12719 8898 ft 243 kts 273°
2026-05-05 19:47 47.57483 9.10241 8889 ft 242 kts 273°
2026-05-05 19:47 47.57668 9.07773 8877 ft 240 kts 273°
2026-05-05 19:47 47.57854 9.05338 8878 ft 237 kts 273°
2026-05-05 19:47 47.58040 9.02920 8876 ft 234 kts 273°
2026-05-05 19:48 47.58226 9.00531 8877 ft 233 kts 274°
2026-05-05 19:48 47.58412 8.98137 8893 ft 236 kts 274°
2026-05-05 19:48 47.58602 8.95692 8895 ft 240 kts 273°
2026-05-05 19:48 47.58789 8.93276 8889 ft 239 kts 274°
2026-05-05 19:49 47.58979 8.90833 8889 ft 238 kts 273°
2026-05-05 19:49 47.59173 8.88367 8880 ft 238 kts 273°
2026-05-05 19:49 47.59362 8.85973 8881 ft 237 kts 273°
2026-05-05 19:49 47.59553 8.83549 8881 ft 236 kts 274°
2026-05-05 19:50 47.59739 8.81109 8897 ft 235 kts 269°
2026-05-05 19:50 47.59359 8.78876 8906 ft 228 kts 234°
2026-05-05 19:50 47.58090 8.77479 8780 ft 231 kts 198°
2026-05-05 19:50 47.56505 8.77556 8474 ft 241 kts 162°
2026-05-05 19:51 47.55179 8.79164 8085 ft 255 kts 124°
2026-05-05 19:51 47.54611 8.81685 7814 ft 259 kts 110°
2026-05-05 19:51 47.53854 8.84051 7559 ft 254 kts 124°
2026-05-05 19:51 47.52968 8.86328 7327 ft 255 kts 123°
2026-05-05 19:52 47.52090 8.88566 7126 ft 253 kts 128°
2026-05-05 19:52 47.50772 8.90178 6912 ft 241 kts 165°
2026-05-05 19:52 47.49289 8.90468 6743 ft 234 kts 183°
2026-05-05 19:52 47.47771 8.90500 6502 ft 232 kts 183°
2026-05-05 19:53 47.46185 8.90432 6230 ft 222 kts 197°
2026-05-05 19:53 47.44959 8.89265 5951 ft 208 kts 237°
2026-05-05 19:53 47.44440 8.87327 5722 ft 201 kts 253°
2026-05-05 19:53 47.44041 8.85358 5450 ft 200 kts 253°
2026-05-05 19:54 47.43870 8.83349 5187 ft 196 kts 270°
2026-05-05 19:54 47.43962 8.81394 4988 ft 185 kts 274°
2026-05-05 19:54 47.44093 8.79545 4754 ft 178 kts 274°
2026-05-05 19:54 47.44221 8.77765 4492 ft 171 kts 274°
2026-05-05 19:55 47.44343 8.76009 4252 ft 175 kts 274°
2026-05-05 19:55 47.44465 8.74219 3996 ft 173 kts 274°
2026-05-05 19:55 47.44583 8.72510 3755 ft 161 kts 274°
2026-05-05 19:55 47.44693 8.70928 3550 ft 148 kts 274°
2026-05-05 19:56 47.44794 8.69451 3313 ft 143 kts 273°
2026-05-05 19:56 47.44895 8.67998 3111 ft 141 kts 274°
2026-05-05 19:56 47.44996 8.66538 2911 ft 145 kts 274°
2026-05-05 19:56 47.45098 8.65045 2680 ft 146 kts 274°
2026-05-05 19:57 47.45200 8.63596 2449 ft 148 kts 274°
2026-05-05 19:57 47.45268 8.62606 2280 ft 148 kts 274°
2026-05-05 19:57 47.45415 8.60596 2000 ft 146 kts 275°
2026-05-05 19:57 47.45522 8.59104 1806 ft 148 kts 275°
2026-05-05 19:58 47.45627 8.57613 1542 ft 145 kts 275°
2026-05-05 19:58 47.45717 8.56228 1417 ft 135 kts 276°
2026-05-05 19:58 47.45800 8.55075 1396 ft 78 kts 276°
2026-05-05 19:58 47.45825 8.54571 1389 ft 45 kts 263°
2026-05-05 19:59 47.45747 8.54247 1383 ft 24 kts 233°
2026-05-05 19:59 47.45721 8.54216 1385 ft 1 kts 203°
2026-05-05 19:59 47.45708 8.54209 1383 ft 3 kts 200°
2026-05-05 19:59 47.45685 8.54203 1383 ft 4 kts 185°
2026-05-05 20:00 47.45655 8.54206 1383 ft 5 kts 170°
2026-05-05 20:00 47.45619 8.54247 1386 ft 10 kts 127°
2026-05-05 20:00 47.45579 8.54335 1383 ft 10 kts 108°
2026-05-05 20:00 47.45573 8.54443 1386 ft 11 kts 95°
2026-05-05 20:01 47.45557 8.54548 1387 ft 10 kts 110°
2026-05-05 20:01 47.45531 8.54650 1386 ft 11 kts 109°
2026-05-05 20:01 47.45505 8.54773 1390 ft 14 kts 108°
2026-05-05 20:01 47.45466 8.54934 1398 ft 18 kts 110°
2026-05-05 20:02 47.45428 8.55093 1402 ft 15 kts 109°
2026-05-05 20:02 47.45394 8.55237 1400 ft 15 kts 109°
2026-05-05 20:02 47.45348 8.55369 1403 ft 14 kts 119°
2026-05-05 20:02 47.45302 8.55491 1411 ft 13 kts 119°
2026-05-05 20:03 47.45280 8.55592 1406 ft 9 kts 85°
2026-05-05 20:03 47.45295 8.55636 1410 ft 2 kts 21°
2026-05-05 20:03 47.45328 8.55644 1410 ft 7 kts
2026-05-05 20:03 47.45348 8.55647 1412 ft 0 kts
2026-05-05 20:04 47.45350 8.55648 1412 ft 0 kts